Home   Weather   Sutton Coldfield   Past weeks
Flag for United Kingdom

Past Weather in Sutton Coldfield, England, United Kingdom — Yesterday and Last 2 Weeks

Now
59 °F

Clear.


Feels Like: 60 °F
Forecast: 69 / 54 °F
Wind: 3 mph from Southwest

Location: Birmingham / Airport

Current Time: Jul 19, 2019 at 12:52:03 am

Latest Report: Jul 18, 2019 at 11:50 pm


Visibility: 10 mi

Pressure: 29.89 "Hg

Humidity: 68%

Dew Point: 48 °F

Location of Sutton ColdfieldLocation

Past Weather in Sutton Coldfield — Graph

°F

Sutton Coldfield Temperature Yesterday

Maximum temperature yesterday: 70 °F (at 2:50 pm)
Minimum temperature yesterday: 57 °F (at 8:20 am)
Average temperature yesterday: 64 °F

High & Low Weather Summary for the Past Weeks

 TemperatureHumidityPressure
High77 °F (Jul 4, 5:20 pm)100% (Jul 11, 9:50 pm)30.36 "Hg (Jul 11, 9:50 pm)
Low48 °F (Jul 15, 4:20 am)34% (Jul 5, 3:20 pm)29.77 "Hg (Jul 18, 2:50 am)
Average63 °F71%30.07 "Hg
* Reported Jul 3 11:20 pm — Jul 18 11:20 pm, Sutton Coldfield. Weather by CustomWeather, © 2019

Note: Actual official high and low records may vary slightly from our data, if they occured in-between our weather recording intervals... More about our weather records

Advertising

Sutton Coldfield Weather History for the Previous 24 Hours

Scroll right to see more
 ConditionsComfort  
Time TempWeatherWind HumidityBarometerVisibility
11:20 pm
Thu, Jul 18
61 °FClear.5 mph63%29.89 "Hg10 mi
10:50 pm61 °FClear.6 mph63%29.86 "Hg10 mi
10:20 pm63 °FClear.6 mph59%29.86 "Hg10 mi
9:50 pm63 °FClear.5 mph59%29.86 "Hg10 mi
9:20 pm64 °FClear.6 mph56%29.86 "Hg10 mi
8:50 pm66 °FPassing clouds.7 mph49%29.86 "HgN/A
8:20 pm66 °FPassing clouds.9 mph52%29.86 "HgN/A
7:50 pm68 °FPassing clouds.9 mph49%29.83 "HgN/A
7:20 pm68 °FSunny.10 mph49%29.83 "Hg10 mi
6:50 pm68 °FPassing clouds.10 mph49%29.83 "HgN/A
6:20 pm68 °FPassing clouds.8 mph49%29.83 "HgN/A
5:50 pm68 °FSunny.10 mph49%29.83 "Hg10 mi
5:20 pm68 °FSunny.12 mph49%29.83 "Hg10 mi
4:50 pm68 °FPassing clouds.13 mph46%29.83 "HgN/A
4:20 pm68 °FPassing clouds.13 mph49%29.83 "HgN/A
3:50 pm70 °FPassing clouds.12 mph43%29.83 "HgN/A
3:20 pm68 °FPassing clouds.13 mph46%29.83 "HgN/A
2:50 pm70 °FPassing clouds.13 mph46%29.83 "HgN/A
2:20 pm68 °FPassing clouds.12 mph46%29.83 "HgN/A
1:50 pm68 °FPassing clouds.9 mph49%29.83 "HgN/A
12:50 pm68 °FScattered clouds.10 mph49%29.80 "HgN/A
12:20 pm68 °FScattered clouds.10 mph49%29.80 "HgN/A
11:50 am66 °FPartly sunny.8 mph60%29.80 "HgN/A
11:20 am64 °FPartly sunny.7 mph68%29.80 "HgN/A
10:50 am63 °FBroken clouds.9 mph73%29.80 "HgN/A
10:20 am61 °FOvercast.7 mph77%29.80 "HgN/A
9:50 am59 °FPartly sunny.5 mph82%29.80 "HgN/A
9:20 am57 °FPartly sunny.5 mph94%29.80 "HgN/A
8:50 am57 °FBroken clouds.10 mph94%29.80 "HgN/A
8:20 am57 °FDrizzle. Broken clouds.13 mph94%29.80 "Hg2 mi
7:50 am59 °FDrizzle. Broken clouds.7 mph94%29.80 "HgN/A
7:20 am59 °FScattered showers. Broken clouds.8 mph100%29.77 "Hg5 mi
6:50 am61 °FDrizzle. Broken clouds.5 mph94%29.77 "Hg3 mi
6:20 am61 °FDrizzle. Partly sunny.6 mph94%29.77 "HgN/A
5:50 am61 °FBroken clouds.8 mph88%29.77 "HgN/A
5:20 am61 °FPartly sunny.6 mph88%29.77 "HgN/A
4:50 am61 °FPassing clouds.7 mph88%29.77 "HgN/A
4:20 am61 °FPassing clouds.7 mph83%29.77 "HgN/A
3:50 am61 °FPassing clouds.8 mph83%29.77 "HgN/A
3:20 am61 °FPassing clouds.8 mph83%29.77 "HgN/A
2:50 am61 °FPassing clouds.8 mph83%29.77 "HgN/A
2:20 am61 °FPassing clouds.7 mph77%29.80 "HgN/A
1:50 am61 °FPassing clouds.6 mph77%29.80 "HgN/A
1:20 am61 °FPartly cloudy.6 mph77%29.80 "HgN/A
12:50 am61 °FPassing clouds.6 mph77%29.83 "HgN/A
12:20 am63 °FPassing clouds.8 mph68%29.83 "HgN/A
Weather by CustomWeather, © 2019

See weather overview